Location: *
(28.3744°N, 81.5492°W)
Time: 14:33:57
(UTC+00:00)

Cosmos 1263 - Pass Details

Date: 15 June 2025
Orbit: 378 x 1230 km, 82.9° (Epoch: 15 July)

Event Time Altitude Azimuth Distance (km) Brightness Sun altitude
Rises 09:54:33 0° 356° (N) 2,250 8.3 -7.4°
Reaches altitude 10° 09:56:28 10° 357° (N) 1,399 7.3 -7.0°
Maximum altitude 09:59:25 80° 83° (E) 406 4.3 -6.5°
Drops below altitude 10° 10:02:38 10° 172° (S) 1,522 6.9 -5.8°
Sets 10:04:48 0° 174° (S) 2,477 7.9 -5.4°
